Terminal Aerodrome Forecast
Issued by NWS

Home | Current Version | Previous Version | Text Only | Print | Product List | Glossary On
Versions: 1 2 3 4 5 6 7 8 9 10 11 12 13 14 15 16 17 18 19 20 21 22 23 24 25 26 27 28 29 30 31 32 33 34 35 36 37 38 39 40 41 42 43 44 45 46 47 48 49 50
000
FTUS41 KCTP 250527
TAFBFD
TAF
KBFD 250527Z 2506/2606 24012G22KT P6SM -SHRA BKN015 OVC025
     FM251300 28015G28KT P6SM VCSH OVC015
     FM252200 27010G20KT P6SM BKN020
     FM260400 25007KT P6SM SCT015=

USA.gov is the U.S. government's official web portal to all federal, state and local government web resources and services.